Tracking 26325 objects as of 28-Nov-2022
HD Live streaming from Space Station
objects crossing your sky now

WESTFORD NEEDLES

Track WESTFORD NEEDLES now!
10-day predictions
WESTFORD NEEDLES is classified as:


NORAD ID: 2530
Int'l Code: 1963-014AJ
Perigee: 3,268.0 km
Apogee: 3,991.0 km
Inclination: 87.6 °
Period: 165.9 minutes
Semi major axis: 10000 km
RCS: 0.1665 m2 (medium)
Launch date: May 9, 1963
Source: United States (US)
Launch site: AIR FORCE WESTERN TEST RANGE (AFWTR)
aabbcc
Your satellite tracking list
Your tracking list is empty




NASA's NSSDC Master Catalog

Two Line Element Set (TLE):
1 02530U 63014AJ  22331.79427736 -.00001398  00000-0 -59700+0 0  9993
2 02530  87.5690 265.3556 0361451 280.5316  98.8713  8.68103447827020
Source of the keplerian elements: AFSPC